TimeCST,TemperatureF,Dew PointF,Humidity,Sea Level PressureIn,VisibilityMPH,Wind Direction,Wind SpeedMPH,Gust SpeedMPH,PrecipitationIn,Events,Conditions,WindDirDegrees,DateUTC
12:52 AM,54.0,48.9,83,29.91,9.0,ESE,4.6,-,N/A,,Overcast,110,2012-11-10 06:52:00
1:52 AM,57.0,51.1,81,29.90,10.0,ESE,3.5,-,N/A,,Overcast,110,2012-11-10 07:52:00
2:52 AM,55.9,51.1,84,29.89,10.0,SE,5.8,-,N/A,,Mostly Cloudy,140,2012-11-10 08:52:00
3:52 AM,57.9,52.0,81,29.88,10.0,South,6.9,-,N/A,,Mostly Cloudy,170,2012-11-10 09:52:00
4:52 AM,60.1,52.0,75,29.88,10.0,SSE,10.4,-,N/A,,Mostly Cloudy,160,2012-11-10 10:52:00
5:52 AM,59.0,51.8,77,29.86,10.0,South,11.5,17.3,N/A,,Overcast,170,2012-11-10 11:52:00
6:52 AM,57.9,50.0,75,29.86,10.0,South,11.5,-,N/A,,Partly Cloudy,170,2012-11-10 12:52:00
7:52 AM,59.0,48.9,69,29.86,10.0,South,10.4,17.3,N/A,,Clear,170,2012-11-10 13:52:00
8:52 AM,61.0,50.0,67,29.86,10.0,South,9.2,19.6,N/A,,Scattered Clouds,180,2012-11-10 14:52:00
9:52 AM,62.1,50.0,65,29.85,10.0,South,16.1,25.3,0.00,,Mostly Cloudy,180,2012-11-10 15:52:00
10:52 AM,63.0,51.1,65,29.83,10.0,South,12.7,19.6,N/A,,Mostly Cloudy,180,2012-11-10 16:52:00
11:52 AM,66.9,53.1,61,29.79,10.0,South,13.8,26.5,N/A,,Clear,180,2012-11-10 17:52:00
12:52 PM,70.0,54.0,57,29.77,10.0,SSW,15.0,24.2,N/A,,Clear,200,2012-11-10 18:52:00
1:52 PM,70.0,54.0,57,29.76,10.0,SSW,18.4,27.6,N/A,,Clear,200,2012-11-10 19:52:00
2:52 PM,69.1,54.0,58,29.78,10.0,SSW,17.3,26.5,N/A,,Partly Cloudy,200,2012-11-10 20:52:00
3:52 PM,69.1,54.0,58,29.78,10.0,South,8.1,-,N/A,,Partly Cloudy,170,2012-11-10 21:52:00
4:52 PM,69.1,54.0,58,29.78,10.0,South,9.2,-,N/A,,Clear,170,2012-11-10 22:52:00
5:52 PM,69.1,54.0,58,29.77,10.0,SSE,12.7,19.6,N/A,,Clear,160,2012-11-10 23:52:00
6:52 PM,66.0,53.1,63,29.78,10.0,SSE,13.8,-,N/A,,Clear,150,2012-11-11 00:52:00
7:52 PM,64.0,48.9,58,29.77,10.0,SSE,16.1,23.0,N/A,,Clear,160,2012-11-11 01:52:00
8:52 PM,66.0,46.0,48,29.76,10.0,South,19.6,34.5,N/A,,Clear,170,2012-11-11 02:52:00
10:52 PM,64.4,48.2,56,29.77,10.0,South,16.1,34.5,N/A,,Clear,180,2012-11-11 04:52:00
11:52 PM,63.0,48.0,58,29.79,10.0,South,19.6,34.5,N/A,,Clear,190,2012-11-11 05:52:00